map of QPZ home
Great Circle Mapper logo
QPZ - Airport
Location
City:  Piacenza, Emilia-Romagna, Italy
Near (Alt.):Piacenza San Damiano
ICAO / IATA:LIMS / QPZ

Details
Type:Airport (Aerodrome, Airfield)
Use:Military
Latitude:4454'47"N (44.913055)
Longitude:943'24"E (9.723333)
Datum:WGS 1984
Elevation:456 ft (139 m)
Variation:2.1E (WMM2010 magnetic declination)
Runways:1
Longest:9828 × 148 ft (2996 × 45 m), paved

Time
Time Zone:UTC+1 (DST+2)
Local Time:

Weather
METAR:LIMS 271755Z 07001KT 0800 R30/P1500 R12/P1500 FG BKN002 SCT004 08/07 Q1014 RMK OVC VIS MIN 0800 WIND THR30 0301KT AMB

Related Locations
Nearby:
Farthest:CHT: 12124 mi / 19512 km
Waitangi [Tuuta], Chatham Islands, NZ

Find:

   beyond  
but within

Other Information
Maps:
NOTAMs:
Links:
Sources:

  
flag of Italy
flag of Emilia-Romagna
  

Sectional Chart

Flight Planning
at skyvector.com

Satellite Image

Google Maps Satellite View

 

Copyright © 2004-2014 Karl L. Swartz. All rights reserved.
The Great Circle Mapper name and logo are trademarks of the Great Circle Mapper.
All other trademarks mentioned herein belong to their respective owners.
Please see credits for attibutions and further copyright information.

  Follow gcmap on Facebook Follow gcmap on Twitter

hCard Microformat

Geo Microformat